Private Wetterstation Wechselburg
Wetterdaten: Donnerstag, 01.07.2021
Datum Zeit Temp. +2m Bodentemp. Temp.+5cm Temp. Wind Windchill X Diff Temp. Feuchte +2m Feuchte +5cm Luftdruck Regen Wind Richtung Richtung Sonnenschein Taupunkt Windchill Windben
01.07.2021 00:00 16,4 C 18,9 C 16,2 C 16,2 C 15,7 C 0,0 C 79 % 83 % 1010,8 hPa 0,0 l/m 0,2 km/h (0 Bft) S 180 0 min 12,7 C 15,7 C 0,0 km/h (0 Bft)
01.07.2021 00:05 16,3 C 18,9 C 16,0 C 16,0 C 15,3 C 0,0 C 79 % 83 % 1010,8 hPa 0,0 l/m 0,0 km/h (0 Bft) W-SW 247 0 min 12,6 C 15,3 C 0,0 km/h (0 Bft)
01.07.2021 00:10 16,3 C 18,9 C 16,0 C 15,9 C 15,2 C 0,0 C 79 % 84 % 1010,8 hPa 0,0 l/m 0,0 km/h (0 Bft) S 180 0 min 12,6 C 15,2 C 0,0 km/h (0 Bft)
01.07.2021 00:15 16,1 C 18,9 C 15,9 C 15,7 C 15,0 C 0,0 C 79 % 83 % 1010,6 hPa 0,0 l/m 0,3 km/h (0 Bft) N-NO 22 0 min 12,5 C 15,0 C 0,0 km/h (0 Bft)
01.07.2021 00:20 16,1 C 18,9 C 15,9 C 15,7 C 14,9 C 0,0 C 80 % 84 % 1010,6 hPa 0,0 l/m 0,3 km/h (0 Bft) S 180 0 min 12,6 C 14,9 C 0,0 km/h (0 Bft)
01.07.2021 00:25 16,0 C 18,9 C 15,8 C 15,6 C 14,9 C 0,0 C 80 % 83 % 1010,6 hPa 0,0 l/m 0,2 km/h (0 Bft) S 180 0 min 12,5 C 14,9 C 1,6 km/h (1 Bft)
01.07.2021 00:30 15,9 C 18,9 C 15,8 C 15,5 C 14,8 C 0,0 C 80 % 83 % 1010,6 hPa 0,0 l/m 0,3 km/h (0 Bft) S 180 0 min 12,5 C 14,8 C 0,0 km/h (0 Bft)
01.07.2021 00:35 15,8 C 18,8 C 15,8 C 15,5 C 14,8 C 0,0 C 80 % 83 % 1010,6 hPa 0,0 l/m 0,3 km/h (0 Bft) S 180 0 min 12,4 C 14,8 C 3,1 km/h (1 Bft)
01.07.2021 00:40 15,9 C 18,8 C 15,7 C 15,5 C 14,8 C 0,0 C 80 % 83 % 1010,6 hPa 0,0 l/m 0,5 km/h (0 Bft) S-SO 157 0 min 12,5 C 14,8 C 0,0 km/h (0 Bft)
01.07.2021 00:45 15,7 C 18,8 C 15,6 C 15,4 C 14,7 C 0,0 C 80 % 83 % 1010,6 hPa 0,0 l/m 0,6 km/h (0 Bft) O-SO 112 0 min 12,3 C 14,7 C 0,0 km/h (0 Bft)
01.07.2021 00:50 15,6 C 18,8 C 15,6 C 15,3 C 14,6 C 0,0 C 81 % 83 % 1010,6 hPa 0,0 l/m 0,3 km/h (0 Bft) S-SW 202 0 min 12,3 C 14,6 C 0,0 km/h (0 Bft)
01.07.2021 00:55 15,7 C 18,8 C 15,5 C 15,3 C 14,5 C 0,0 C 81 % 83 % 1010,8 hPa 0,0 l/m 0,3 km/h (0 Bft) SW 225 0 min 12,4 C 14,5 C 0,0 km/h (0 Bft)
01.07.2021 01:00 15,6 C 18,8 C 15,5 C 15,2 C 14,5 C 0,0 C 81 % 83 % 1010,8 hPa 0,0 l/m 0,2 km/h (0 Bft) S 180 0 min 12,3 C 14,5 C 0,0 km/h (0 Bft)
01.07.2021 01:05 15,5 C 18,8 C 15,4 C 15,2 C 14,5 C 0,0 C 81 % 84 % 1010,8 hPa 0,0 l/m 0,0 km/h (0 Bft) S-SO 157 0 min 12,3 C 14,5 C 0,0 km/h (0 Bft)
01.07.2021 01:10 15,4 C 18,8 C 15,4 C 15,1 C 14,5 C 0,0 C 80 % 84 % 1010,8 hPa 0,0 l/m 0,0 km/h (0 Bft) SW 225 0 min 12,0 C 14,5 C 2,3 km/h (1 Bft)
01.07.2021 01:15 15,5 C 18,8 C 15,4 C 15,2 C 14,5 C 0,0 C 81 % 84 % 1010,8 hPa 0,0 l/m 0,2 km/h (0 Bft) SW 225 0 min 12,3 C 14,5 C 0,0 km/h (0 Bft)
01.07.2021 01:20 15,4 C 18,8 C 15,4 C 15,1 C 14,5 C 0,0 C 81 % 84 % 1010,8 hPa 0,0 l/m 0,2 km/h (0 Bft) SW 225 0 min 12,2 C 14,5 C 0,0 km/h (0 Bft)
01.07.2021 01:25 15,4 C 18,8 C 15,3 C 15,1 C 14,6 C 0,0 C 81 % 84 % 1010,8 hPa 0,0 l/m 0,2 km/h (0 Bft) W 270 0 min 12,2 C 14,6 C 2,4 km/h (1 Bft)
01.07.2021 01:30 15,3 C 18,8 C 15,4 C 15,1 C 14,6 C 0,0 C 81 % 84 % 1010,8 hPa 0,0 l/m 0,3 km/h (0 Bft) SO 135 0 min 12,1 C 14,6 C 0,0 km/h (0 Bft)
01.07.2021 01:35 15,3 C 18,8 C 15,3 C 15,1 C 14,6 C 0,0 C 82 % 84 % 1010,6 hPa 0,0 l/m 0,2 km/h (0 Bft) S 180 0 min 12,2 C 14,6 C 3,9 km/h (1 Bft)
01.07.2021 01:40 15,3 C 18,8 C 15,3 C 15,1 C 14,6 C 0,0 C 82 % 84 % 1010,6 hPa 0,0 l/m 0,3 km/h (0 Bft) SW 225 0 min 12,2 C 14,6 C 0,0 km/h (0 Bft)
01.07.2021 01:45 15,3 C 18,7 C 15,3 C 15,1 C 14,6 C 0,0 C 82 % 84 % 1010,6 hPa 0,0 l/m 0,3 km/h (0 Bft) SO 135 0 min 12,2 C 14,6 C 0,0 km/h (0 Bft)
01.07.2021 01:50 15,3 C 18,7 C 15,3 C 15,0 C 14,5 C 0,0 C 82 % 84 % 1010,6 hPa 0,0 l/m 0,5 km/h (0 Bft) W 270 0 min 12,2 C 14,5 C 2,9 km/h (1 Bft)
01.07.2021 01:55 15,2 C 18,7 C 15,1 C 15,0 C 14,5 C 0,0 C 82 % 84 % 1010,9 hPa 0,0 l/m 0,8 km/h (0 Bft) NW 315 0 min 12,1 C 14,5 C 9,5 km/h (2 Bft)
01.07.2021 02:00 15,3 C 18,7 C 15,1 C 15,0 C 14,4 C 0,0 C 82 % 84 % 1010,9 hPa 0,0 l/m 1,0 km/h (0 Bft) S-SW 202 0 min 12,2 C 14,4 C 0,0 km/h (0 Bft)
01.07.2021 02:05 15,2 C 18,7 C 15,0 C 14,9 C 14,2 C 0,0 C 82 % 84 % 1010,9 hPa 0,0 l/m 0,6 km/h (0 Bft) SW 225 0 min 12,1 C 14,2 C 0,0 km/h (0 Bft)
01.07.2021 02:10 15,1 C 18,7 C 15,0 C 14,8 C 14,1 C 0,0 C 82 % 84 % 1010,9 hPa 0,0 l/m 0,5 km/h (0 Bft) S 180 0 min 12,0 C 14,1 C 3,5 km/h (1 Bft)
01.07.2021 02:15 15,1 C 18,7 C 15,0 C 14,8 C 14,1 C 0,0 C 82 % 84 % 1010,9 hPa 0,0 l/m 0,6 km/h (0 Bft) W-SW 247 0 min 12,0 C 14,1 C 0,0 km/h (0 Bft)
01.07.2021 02:20 15,0 C 18,7 C 14,9 C 14,7 C 14,1 C 0,0 C 82 % 84 % 1010,9 hPa 0,0 l/m 0,5 km/h (0 Bft) W 270 0 min 12,0 C 14,1 C 0,0 km/h (0 Bft)
01.07.2021 02:25 14,9 C 18,7 C 14,9 C 14,6 C 14,1 C 0,0 C 82 % 84 % 1010,9 hPa 0,0 l/m 0,3 km/h (0 Bft) S-SO 157 0 min 11,9 C 14,1 C 1,8 km/h (1 Bft)
01.07.2021 02:30 14,8 C 18,7 C 14,9 C 14,6 C 14,1 C 0,0 C 82 % 85 % 1010,9 hPa 0,0 l/m 0,5 km/h (0 Bft) SW 225 0 min 11,8 C 14,1 C 3,1 km/h (1 Bft)
01.07.2021 02:35 14,8 C 18,7 C 14,9 C 14,5 C 14,0 C 0,0 C 82 % 85 % 1010,9 hPa 0,0 l/m 0,5 km/h (0 Bft) W 270 0 min 11,8 C 14,0 C 0,0 km/h (0 Bft)
01.07.2021 02:40 14,9 C 18,7 C 14,8 C 14,6 C 14,0 C 0,0 C 83 % 85 % 1010,9 hPa 0,0 l/m 0,6 km/h (0 Bft) S-SO 157 0 min 12,0 C 14,0 C 1,8 km/h (1 Bft)
01.07.2021 02:45 14,7 C 18,7 C 14,7 C 14,4 C 13,8 C 0,0 C 83 % 85 % 1010,9 hPa 0,0 l/m 0,5 km/h (0 Bft) SW 225 0 min 11,8 C 13,8 C 2,4 km/h (1 Bft)
01.07.2021 02:50 14,7 C 18,7 C 14,7 C 14,4 C 13,8 C 0,0 C 83 % 85 % 1010,9 hPa 0,0 l/m 0,3 km/h (0 Bft) S 180 0 min 11,8 C 13,8 C 0,0 km/h (0 Bft)
01.07.2021 02:55 14,7 C 18,8 C 14,6 C 14,3 C 13,6 C 0,0 C 83 % 85 % 1011,1 hPa 0,0 l/m 0,3 km/h (0 Bft) SW 225 0 min 11,8 C 13,6 C 0,0 km/h (0 Bft)
01.07.2021 03:00 14,7 C 18,7 C 14,6 C 14,3 C 13,6 C 0,0 C 83 % 85 % 1011,1 hPa 0,0 l/m 0,3 km/h (0 Bft) SW 225 0 min 11,8 C 13,6 C 3,2 km/h (1 Bft)
01.07.2021 03:05 14,5 C 18,7 C 14,5 C 14,2 C 13,6 C 0,0 C 83 % 86 % 1011,1 hPa 0,0 l/m 0,8 km/h (0 Bft) O-SO 112 0 min 11,6 C 13,6 C 0,0 km/h (0 Bft)
01.07.2021 03:10 14,5 C 18,7 C 14,5 C 14,2 C 13,6 C 0,0 C 83 % 86 % 1011,1 hPa 0,0 l/m 0,8 km/h (0 Bft) S-SO 157 0 min 11,6 C 13,6 C 0,0 km/h (0 Bft)
01.07.2021 03:15 14,5 C 18,7 C 14,5 C 14,2 C 13,6 C 0,0 C 83 % 86 % 1011,1 hPa 0,0 l/m 0,3 km/h (0 Bft) S-SO 157 0 min 11,6 C 13,6 C 2,1 km/h (1 Bft)
01.07.2021 03:20 14,4 C 18,7 C 14,4 C 14,1 C 13,5 C 0,0 C 83 % 86 % 1011,1 hPa 0,0 l/m 0,2 km/h (0 Bft) S 180 0 min 11,5 C 13,5 C 0,0 km/h (0 Bft)
01.07.2021 03:25 14,4 C 18,7 C 14,4 C 14,1 C 13,6 C 0,0 C 83 % 86 % 1011,1 hPa 0,0 l/m 0,2 km/h (0 Bft) SO 135 0 min 11,5 C 13,6 C 0,0 km/h (0 Bft)
01.07.2021 03:30 14,4 C 18,7 C 14,4 C 14,1 C 13,5 C 0,0 C 83 % 86 % 1011,1 hPa 0,0 l/m 0,2 km/h (0 Bft) S 180 0 min 11,5 C 13,5 C 0,0 km/h (0 Bft)
01.07.2021 03:35 14,4 C 18,7 C 14,4 C 14,1 C 13,6 C 0,0 C 83 % 86 % 1010,9 hPa 0,0 l/m 0,2 km/h (0 Bft) SW 225 0 min 11,5 C 13,6 C 0,0 km/h (0 Bft)
01.07.2021 03:40 14,4 C 18,7 C 14,3 C 14,1 C 13,6 C 0,0 C 84 % 86 % 1010,9 hPa 0,0 l/m 0,0 km/h (0 Bft) S 180 0 min 11,7 C 13,6 C 0,0 km/h (0 Bft)
01.07.2021 03:45 14,4 C 18,7 C 14,4 C 14,2 C 13,7 C 0,0 C 84 % 86 % 1010,9 hPa 0,0 l/m 0,0 km/h (0 Bft) S 180 0 min 11,7 C 13,7 C 0,0 km/h (0 Bft)
01.07.2021 03:50 14,4 C 18,7 C 14,5 C 14,2 C 13,8 C 0,0 C 84 % 87 % 1010,9 hPa 0,0 l/m 0,0 km/h (0 Bft) S-SO 157 0 min 11,7 C 13,8 C 0,0 km/h (0 Bft)
01.07.2021 03:55 14,4 C 18,7 C 14,6 C 14,3 C 14,1 C 0,0 C 84 % 87 % 1010,8 hPa 0,0 l/m 0,2 km/h (0 Bft) W 270 0 min 11,7 C 14,1 C 0,0 km/h (0 Bft)
01.07.2021 04:00 14,4 C 18,7 C 14,6 C 14,3 C 14,2 C 0,0 C 85 % 87 % 1010,8 hPa 0,0 l/m 0,3 km/h (0 Bft) S 180 0 min 11,9 C 14,2 C 2,3 km/h (1 Bft)
01.07.2021 04:05 14,4 C 18,7 C 14,6 C 14,4 C 14,3 C 0,0 C 85 % 87 % 1010,8 hPa 0,0 l/m 0,3 km/h (0 Bft) W-SW 247 0 min 11,9 C 14,3 C 0,0 km/h (0 Bft)
01.07.2021 04:10 14,4 C 18,6 C 14,6 C 14,4 C 14,4 C 0,0 C 85 % 87 % 1010,8 hPa 0,0 l/m 0,2 km/h (0 Bft) W-SW 247 0 min 11,9 C 14,4 C 0,0 km/h (0 Bft)
01.07.2021 04:15 14,5 C 18,6 C 14,7 C 14,5 C 14,5 C 0,0 C 85 % 87 % 1010,8 hPa 0,0 l/m 0,2 km/h (0 Bft) SW 225 0 min 12,0 C 14,5 C 0,0 km/h (0 Bft)
01.07.2021 04:20 14,5 C 18,6 C 14,7 C 14,5 C 14,5 C 0,0 C 85 % 87 % 1010,8 hPa 0,0 l/m 0,2 km/h (0 Bft) O-SO 112 0 min 12,0 C 14,5 C 0,0 km/h (0 Bft)
01.07.2021 04:25 14,6 C 18,6 C 14,7 C 14,6 C 14,6 C 0,0 C 85 % 87 % 1010,8 hPa 0,0 l/m 0,2 km/h (0 Bft) SW 225 0 min 12,1 C 14,6 C 0,0 km/h (0 Bft)
01.07.2021 04:30 14,7 C 18,6 C 14,7 C 14,7 C 14,6 C 0,0 C 85 % 87 % 1010,8 hPa 0,0 l/m 0,3 km/h (0 Bft) O 90 0 min 12,2 C 14,6 C 0,0 km/h (0 Bft)
01.07.2021 04:35 14,6 C 18,6 C 14,8 C 14,6 C 14,6 C 0,0 C 85 % 87 % 1010,7 hPa 0,0 l/m 0,2 km/h (0 Bft) S 180 0 min 12,1 C 14,6 C 0,0 km/h (0 Bft)
01.07.2021 04:40 14,7 C 18,6 C 14,8 C 14,7 C 14,7 C 0,0 C 85 % 87 % 1010,7 hPa 0,0 l/m 0,2 km/h (0 Bft) S-SO 157 0 min 12,2 C 14,7 C 0,0 km/h (0 Bft)
01.07.2021 04:45 14,7 C 18,6 C 14,8 C 14,8 C 14,8 C 0,1 C 85 % 87 % 1010,7 hPa 0,0 l/m 0,3 km/h (0 Bft) W-SW 247 0 min 12,2 C 14,8 C 0,0 km/h (0 Bft)
01.07.2021 04:50 14,8 C 18,6 C 14,9 C 14,8 C 14,8 C 0,0 C 85 % 87 % 1010,7 hPa 0,0 l/m 0,3 km/h (0 Bft) S 180 0 min 12,3 C 14,8 C 0,0 km/h (0 Bft)
01.07.2021 04:55 14,8 C 18,4 C 14,9 C 14,9 C 14,9 C 0,1 C 85 % 87 % 1010,8 hPa 0,0 l/m 0,0 km/h (0 Bft) W-SW 247 0 min 12,3 C 14,9 C 0,0 km/h (0 Bft)
01.07.2021 05:00 14,9 C 18,4 C 14,9 C 14,9 C 14,9 C 0,0 C 85 % 87 % 1010,8 hPa 0,0 l/m 0,0 km/h (0 Bft) NW 315 0 min 12,4 C 14,9 C 0,0 km/h (0 Bft)
01.07.2021 05:05 14,8 C 18,4 C 15,0 C 14,9 C 14,9 C 0,1 C 85 % 86 % 1010,8 hPa 0,0 l/m 0,0 km/h (0 Bft) SO 135 0 min 12,3 C 14,9 C 0,0 km/h (0 Bft)
01.07.2021 05:10 14,9 C 18,4 C 14,9 C 14,9 C 14,9 C 0,0 C 85 % 86 % 1010,8 hPa 0,0 l/m 0,2 km/h (0 Bft) W 270 0 min 12,4 C 14,9 C 0,0 km/h (0 Bft)
01.07.2021 05:15 14,9 C 18,4 C 14,9 C 14,9 C 14,9 C 0,0 C 85 % 87 % 1010,6 hPa 0,0 l/m 0,2 km/h (0 Bft) W-SW 247 0 min 12,4 C 14,9 C 1,6 km/h (1 Bft)
01.07.2021 05:20 14,9 C 18,4 C 15,0 C 14,9 C 14,9 C 0,0 C 85 % 86 % 1010,6 hPa 0,0 l/m 0,2 km/h (0 Bft) N-NW 337 0 min 12,4 C 14,9 C 0,0 km/h (0 Bft)
01.07.2021 05:25 15,0 C 18,4 C 15,0 C 15,0 C 15,0 C 0,0 C 85 % 86 % 1010,6 hPa 0,0 l/m 0,5 km/h (0 Bft) W-SW 247 0 min 12,5 C 15,0 C 2,9 km/h (1 Bft)
01.07.2021 05:30 15,0 C 18,4 C 15,0 C 15,0 C 14,9 C 0,0 C 85 % 86 % 1010,6 hPa 0,0 l/m 0,6 km/h (0 Bft) O-NO 67 0 min 12,5 C 14,9 C 0,0 km/h (0 Bft)
01.07.2021 05:35 15,1 C 18,4 C 15,0 C 15,0 C 14,7 C 0,0 C 85 % 86 % 1010,6 hPa 0,0 l/m 0,6 km/h (0 Bft) S 180 0 min 12,6 C 14,7 C 0,0 km/h (0 Bft)
01.07.2021 05:40 15,1 C 18,4 C 15,0 C 15,0 C 14,7 C 0,0 C 85 % 86 % 1010,6 hPa 0,0 l/m 0,6 km/h (0 Bft) SW 225 0 min 12,6 C 14,7 C 2,3 km/h (1 Bft)
01.07.2021 05:45 15,1 C 18,4 C 15,0 C 14,9 C 14,6 C 0,0 C 85 % 86 % 1010,6 hPa 0,0 l/m 0,5 km/h (0 Bft) S-SO 157 0 min 12,6 C 14,6 C 0,0 km/h (0 Bft)
01.07.2021 05:50 15,1 C 18,4 C 14,9 C 15,0 C 14,7 C 0,0 C 85 % 87 % 1010,6 hPa 0,0 l/m 0,5 km/h (0 Bft) SO 135 0 min 12,6 C 14,7 C 0,0 km/h (0 Bft)
01.07.2021 05:55 15,1 C 18,4 C 15,0 C 15,0 C 14,9 C 0,0 C 85 % 87 % 1010,4 hPa 0,0 l/m 0,5 km/h (0 Bft) S-SW 202 0 min 12,6 C 14,9 C 1,6 km/h (1 Bft)
01.07.2021 06:00 15,1 C 18,4 C 15,0 C 15,1 C 15,0 C 0,0 C 85 % 87 % 1010,4 hPa 0,0 l/m 0,6 km/h (0 Bft) W-SW 247 0 min 12,6 C 15,0 C 1,8 km/h (1 Bft)
01.07.2021 06:05 15,1 C 18,3 C 15,1 C 15,1 C 15,1 C 0,0 C 85 % 87 % 1010,4 hPa 0,0 l/m 0,6 km/h (0 Bft) O-SO 112 0 min 12,6 C 15,1 C 1,8 km/h (1 Bft)
01.07.2021 06:10 15,1 C 18,3 C 15,2 C 15,2 C 15,2 C 0,1 C 85 % 86 % 1010,4 hPa 0,0 l/m 0,5 km/h (0 Bft) N-NW 337 0 min 12,6 C 15,2 C 2,1 km/h (1 Bft)
01.07.2021 06:15 15,2 C 18,3 C 15,2 C 15,4 C 15,4 C 0,2 C 85 % 86 % 1010,4 hPa 0,0 l/m 0,6 km/h (0 Bft) SW 225 0 min 12,7 C 15,4 C 0,0 km/h (0 Bft)
01.07.2021 06:20 15,2 C 18,3 C 15,2 C 15,4 C 15,4 C 0,2 C 85 % 86 % 1010,4 hPa 0,0 l/m 0,5 km/h (0 Bft) S-SW 202 0 min 12,7 C 15,4 C 0,0 km/h (0 Bft)
01.07.2021 06:25 15,2 C 18,3 C 15,2 C 15,3 C 15,3 C 0,1 C 85 % 86 % 1010,4 hPa 0,0 l/m 0,6 km/h (0 Bft) W 270 0 min 12,7 C 15,3 C 1,6 km/h (1 Bft)
01.07.2021 06:30 15,2 C 18,3 C 15,2 C 15,3 C 15,3 C 0,1 C 85 % 86 % 1010,4 hPa 0,0 l/m 0,8 km/h (0 Bft) SO 135 0 min 12,7 C 15,3 C 0,0 km/h (0 Bft)
01.07.2021 06:35 15,3 C 18,3 C 15,3 C 15,3 C 15,3 C 0,0 C 85 % 86 % 1010,7 hPa 0,0 l/m 0,5 km/h (0 Bft) S 180 0 min 12,8 C 15,3 C 0,0 km/h (0 Bft)
01.07.2021 06:40 15,3 C 18,3 C 15,4 C 15,7 C 15,7 C 0,4 C 85 % 86 % 1010,7 hPa 0,0 l/m 0,5 km/h (0 Bft) S-SO 157 0 min 12,8 C 15,7 C 0,0 km/h (0 Bft)
01.07.2021 06:45 15,5 C 18,3 C 15,5 C 16,0 C 16,0 C 0,5 C 85 % 86 % 1010,7 hPa 0,0 l/m 0,3 km/h (0 Bft) S 180 0 min 13,0 C 16,0 C 0,0 km/h (0 Bft)
01.07.2021 06:50 15,5 C 18,3 C 15,6 C 16,2 C 16,2 C 0,7 C 85 % 86 % 1010,7 hPa 0,0 l/m 0,5 km/h (0 Bft) O-SO 112 0 min 13,0 C 16,2 C 0,0 km/h (0 Bft)
01.07.2021 06:55 15,7 C 18,3 C 15,7 C 16,5 C 16,5 C 0,8 C 85 % 86 % 1010,7 hPa 0,0 l/m 0,5 km/h (0 Bft) SW 225 0 min 13,2 C 16,5 C 1,8 km/h (1 Bft)
01.07.2021 07:00 15,6 C 18,3 C 15,7 C 16,5 C 16,5 C 0,9 C 85 % 86 % 1010,7 hPa 0,0 l/m 0,3 km/h (0 Bft) SW 225 0 min 13,1 C 16,5 C 2,9 km/h (1 Bft)
01.07.2021 07:05 15,7 C 18,3 C 15,7 C 16,7 C 16,7 C 1,0 C 85 % 86 % 1010,7 hPa 0,0 l/m 0,8 km/h (0 Bft) S-SO 157 0 min 13,2 C 16,7 C 2,3 km/h (1 Bft)
01.07.2021 07:10 15,7 C 18,3 C 15,8 C 16,7 C 16,7 C 1,0 C 85 % 86 % 1010,7 hPa 0,0 l/m 0,8 km/h (0 Bft) S-SW 202 0 min 13,2 C 16,7 C 0,0 km/h (0 Bft)
01.07.2021 07:15 15,8 C 18,3 C 15,9 C 16,8 C 16,8 C 1,0 C 85 % 86 % 1011,0 hPa 0,0 l/m 0,5 km/h (0 Bft) W 270 0 min 13,3 C 16,8 C 2,7 km/h (1 Bft)
01.07.2021 07:20 15,9 C 18,3 C 15,9 C 16,8 C 16,8 C 0,9 C 85 % 86 % 1011,0 hPa 0,0 l/m 0,6 km/h (0 Bft) SW 225 0 min 13,4 C 16,8 C 2,6 km/h (1 Bft)
01.07.2021 07:25 15,9 C 18,2 C 15,9 C 16,8 C 16,8 C 0,9 C 84 % 86 % 1011,0 hPa 0,0 l/m 1,1 km/h (1 Bft) W-SW 247 0 min 13,2 C 16,8 C 6,0 km/h (2 Bft)
01.07.2021 07:30 16,0 C 18,2 C 16,0 C 16,8 C 16,8 C 0,8 C 84 % 85 % 1011,0 hPa 0,0 l/m 1,4 km/h (1 Bft) S-SW 202 0 min 13,3 C 16,8 C 1,9 km/h (1 Bft)
01.07.2021 07:35 16,1 C 18,2 C 16,0 C 16,9 C 16,9 C 0,8 C 84 % 85 % 1010,8 hPa 0,0 l/m 1,3 km/h (1 Bft) W-SW 247 0 min 13,4 C 16,9 C 0,0 km/h (0 Bft)
01.07.2021 07:40 16,0 C 18,2 C 16,0 C 17,0 C 17,0 C 1,0 C 84 % 85 % 1010,8 hPa 0,0 l/m 0,8 km/h (0 Bft) W-SW 247 0 min 13,3 C 17,0 C 0,0 km/h (0 Bft)
01.07.2021 07:45 16,1 C 18,2 C 16,0 C 17,1 C 17,1 C 1,0 C 84 % 85 % 1010,8 hPa 0,0 l/m 0,6 km/h (0 Bft) O-NO 67 0 min 13,4 C 17,1 C 3,1 km/h (1 Bft)
01.07.2021 07:50 16,1 C 18,2 C 16,1 C 17,0 C 17,0 C 0,9 C 84 % 85 % 1010,8 hPa 0,0 l/m 0,8 km/h (0 Bft) S 180 0 min 13,4 C 17,0 C 2,4 km/h (1 Bft)
01.07.2021 07:55 16,2 C 18,2 C 16,1 C 17,0 C 17,0 C 0,8 C 84 % 85 % 1011,0 hPa 0,0 l/m 0,8 km/h (0 Bft) SO 135 0 min 13,5 C 17,0 C 1,8 km/h (1 Bft)
01.07.2021 08:00 16,3 C 18,2 C 16,2 C 17,1 C 17,1 C 0,8 C 83 % 85 % 1011,0 hPa 0,0 l/m 0,8 km/h (0 Bft) SW 225 0 min 13,4 C 17,1 C 2,6 km/h (1 Bft)
01.07.2021 08:05 16,2 C 18,2 C 16,2 C 17,2 C 17,2 C 1,0 C 84 % 85 % 1011,0 hPa 0,0 l/m 0,8 km/h (0 Bft) W-SW 247 0 min 13,5 C 17,2 C 2,4 km/h (1 Bft)
01.07.2021 08:10 16,3 C 18,2 C 16,3 C 17,5 C 17,5 C 1,2 C 84 % 85 % 1011,0 hPa 0,0 l/m 0,8 km/h (0 Bft) SO 135 0 min 13,6 C 17,5 C 1,6 km/h (1 Bft)
01.07.2021 08:15 16,4 C 18,2 C 16,5 C 17,8 C 17,8 C 1,4 C 84 % 85 % 1011,2 hPa 0,0 l/m 0,6 km/h (0 Bft) O-SO 112 0 min 13,7 C 17,8 C 2,7 km/h (1 Bft)
01.07.2021 08:20 16,5 C 18,2 C 16,4 C 18,0 C 18,0 C 1,5 C 84 % 85 % 1011,2 hPa 0,0 l/m 0,3 km/h (0 Bft) W-SW 247 0 min 13,8 C 18,0 C 0,0 km/h (0 Bft)
01.07.2021 08:25 16,6 C 18,2 C 16,5 C 18,3 C 18,3 C 1,7 C 84 % 85 % 1011,2 hPa 0,0 l/m 0,3 km/h (0 Bft) O-SO 112 0 min 13,9 C 18,3 C 1,9 km/h (1 Bft)
01.07.2021 08:30 16,7 C 18,2 C 16,5 C 18,1 C 18,1 C 1,4 C 83 % 85 % 1011,2 hPa 0,0 l/m 0,6 km/h (0 Bft) W-SW 247 0 min 13,8 C 18,1 C 2,3 km/h (1 Bft)
01.07.2021 08:35 16,6 C 18,2 C 16,6 C 17,8 C 17,8 C 1,2 C 83 % 85 % 1010,9 hPa 0,0 l/m 1,1 km/h (1 Bft) W 270 0 min 13,7 C 17,8 C 1,8 km/h (1 Bft)
01.07.2021 08:40 16,6 C 18,2 C 16,5 C 17,8 C 17,8 C 1,2 C 83 % 85 % 1010,9 hPa 0,0 l/m 1,4 km/h (1 Bft) S 180 0 min 13,7 C 17,8 C 2,1 km/h (1 Bft)
01.07.2021 08:45 16,6 C 18,2 C 16,5 C 17,8 C 17,8 C 1,2 C 82 % 85 % 1010,9 hPa 0,0 l/m 1,9 km/h (1 Bft) SW 225 0 min 13,5 C 17,8 C 3,9 km/h (1 Bft)
01.07.2021 08:50 16,6 C 18,2 C 16,5 C 17,8 C 17,8 C 1,2 C 82 % 85 % 1010,9 hPa 0,0 l/m 2,1 km/h (1 Bft) SW 225 0 min 13,5 C 17,8 C 2,9 km/h (1 Bft)
01.07.2021 08:55 16,7 C 18,2 C 16,5 C 17,5 C 17,5 C 0,8 C 82 % 85 % 1011,3 hPa 0,0 l/m 1,8 km/h (1 Bft) SW 225 0 min 13,6 C 17,5 C 2,3 km/h (1 Bft)
01.07.2021 09:00 16,7 C 18,2 C 16,5 C 17,5 C 17,5 C 0,8 C 82 % 85 % 1011,3 hPa 0,0 l/m 1,4 km/h (1 Bft) SW 225 0 min 13,6 C 17,5 C 0,0 km/h (0 Bft)
01.07.2021 09:05 16,7 C 18,2 C 16,7 C 17,8 C 17,8 C 1,1 C 82 % 85 % 1011,3 hPa 0,0 l/m 1,4 km/h (1 Bft) SW 225 0 min 13,6 C 17,8 C 2,9 km/h (1 Bft)
01.07.2021 09:10 16,7 C 18,1 C 16,7 C 18,1 C 18,1 C 1,4 C 82 % 84 % 1011,3 hPa 0,0 l/m 1,8 km/h (1 Bft) W-NW 292 0 min 13,6 C 18,1 C 0,0 km/h (0 Bft)
01.07.2021 09:15 16,8 C 18,2 C 16,6 C 17,8 C 17,8 C 1,0 C 82 % 84 % 1011,4 hPa 0,0 l/m 1,9 km/h (1 Bft) NW 315 0 min 13,7 C 17,8 C 3,5 km/h (1 Bft)
01.07.2021 09:20 16,7 C 18,2 C 16,5 C 17,3 C 17,3 C 0,6 C 82 % 84 % 1011,4 hPa 0,0 l/m 2,1 km/h (1 Bft) W-SW 247 0 min 13,6 C 17,3 C 2,9 km/h (1 Bft)
01.07.2021 09:25 16,4 C 18,1 C 16,4 C 17,1 C 17,1 C 0,7 C 81 % 83 % 1011,4 hPa 0,0 l/m 2,9 km/h (1 Bft) S-SW 202 0 min 13,1 C 17,1 C 4,7 km/h (1 Bft)
01.07.2021 09:30 16,3 C 18,1 C 16,3 C 17,1 C 17,1 C 0,8 C 80 % 83 % 1011,4 hPa 0,0 l/m 2,9 km/h (1 Bft) S-SO 157 0 min 12,8 C 17,1 C 2,9 km/h (1 Bft)
01.07.2021 09:35 16,0 C 18,2 C 16,2 C 16,8 C 16,8 C 0,8 C 81 % 83 % 1011,7 hPa 0,0 l/m 2,3 km/h (1 Bft) SW 225 0 min 12,7 C 16,8 C 2,9 km/h (1 Bft)
01.07.2021 09:40 16,0 C 18,2 C 16,1 C 16,5 C 16,5 C 0,5 C 81 % 84 % 1011,7 hPa 0,0 l/m 1,6 km/h (1 Bft) S 180 0 min 12,7 C 16,5 C 1,6 km/h (1 Bft)
01.07.2021 09:45 16,0 C 18,2 C 16,3 C 16,5 C 16,5 C 0,5 C 82 % 85 % 1011,7 hPa 0,0 l/m 1,0 km/h (0 Bft) S-SW 202 0 min 12,9 C 16,5 C 1,8 km/h (1 Bft)
01.07.2021 09:50 16,0 C 18,2 C 16,5 C 16,9 C 16,9 C 0,9 C 82 % 84 % 1011,7 hPa 0,0 l/m 1,3 km/h (1 Bft) W-SW 247 0 min 12,9 C 16,9 C 3,2 km/h (1 Bft)
01.07.2021 09:55 16,0 C 18,1 C 16,6 C 18,1 C 18,1 C 2,1 C 83 % 84 % 1011,8 hPa 0,0 l/m 1,9 km/h (1 Bft) SW 225 0 min 13,1 C 18,1 C 2,6 km/h (1 Bft)
01.07.2021 10:00 16,2 C 18,1 C 16,7 C 18,6 C 18,6 C 2,4 C 82 % 83 % 1011,8 hPa 0,0 l/m 2,1 km/h (1 Bft) S-SW 202 0 min 13,1 C 18,6 C 2,4 km/h (1 Bft)
01.07.2021 10:05 16,4 C 18,1 C 16,8 C 19,2 C 19,2 C 2,8 C 82 % 84 % 1011,8 hPa 0,0 l/m 1,8 km/h (1 Bft) W-SW 247 0 min 13,3 C 19,2 C 2,4 km/h (1 Bft)
01.07.2021 10:10 16,4 C 18,1 C 16,9 C 19,2 C 19,2 C 2,8 C 82 % 83 % 1011,8 hPa 0,0 l/m 1,4 km/h (1 Bft) S-SO 157 0 min 13,3 C 19,2 C 1,6 km/h (1 Bft)
01.07.2021 10:15 16,5 C 18,1 C 17,0 C 19,5 C 19,5 C 3,0 C 82 % 82 % 1012,0 hPa 0,0 l/m 1,4 km/h (1 Bft) W-SW 247 0 min 13,4 C 19,5 C 1,9 km/h (1 Bft)
01.07.2021 10:20 16,7 C 18,1 C 17,1 C 19,6 C 19,6 C 2,9 C 81 % 82 % 1012,0 hPa 0,0 l/m 1,6 km/h (1 Bft) S 180 0 min 13,4 C 19,6 C 2,3 km/h (1 Bft)
01.07.2021 10:25 16,7 C 18,0 C 17,2 C 19,9 C 19,9 C 3,2 C 80 % 82 % 1012,0 hPa 0,0 l/m 2,6 km/h (1 Bft) S-SW 202 0 min 13,2 C 19,9 C 2,1 km/h (1 Bft)
01.07.2021 10:30 16,8 C 18,0 C 17,3 C 19,9 C 19,9 C 3,1 C 80 % 81 % 1012,0 hPa 0,0 l/m 2,9 km/h (1 Bft) SW 225 0 min 13,3 C 19,9 C 2,7 km/h (1 Bft)
01.07.2021 10:35 16,9 C 18,0 C 17,6 C 20,5 C 20,5 C 3,6 C 80 % 81 % 1011,8 hPa 0,0 l/m 1,9 km/h (1 Bft) S-SO 157 5 min 13,4 C 20,5 C 3,1 km/h (1 Bft)
01.07.2021 10:40 17,1 C 18,0 C 17,7 C 20,8 C 20,8 C 3,7 C 80 % 81 % 1011,8 hPa 0,0 l/m 1,6 km/h (1 Bft) NW 315 5 min 13,6 C 20,8 C 2,4 km/h (1 Bft)
01.07.2021 10:45 17,2 C 18,0 C 17,6 C 20,8 C 20,8 C 3,6 C 79 % 80 % 1011,8 hPa 0,0 l/m 2,1 km/h (1 Bft) SW 225 5 min 13,5 C 20,8 C 4,2 km/h (1 Bft)
01.07.2021 10:50 17,2 C 18,0 C 17,6 C 20,6 C 20,6 C 3,4 C 79 % 80 % 1011,8 hPa 0,0 l/m 1,8 km/h (1 Bft) W-SW 247 5 min 13,5 C 20,6 C 0,0 km/h (0 Bft)
01.07.2021 10:55 17,3 C 18,0 C 17,7 C 20,8 C 20,8 C 3,5 C 79 % 80 % 1011,7 hPa 0,0 l/m 2,3 km/h (1 Bft) SW 225 5 min 13,6 C 20,8 C 3,7 km/h (1 Bft)
01.07.2021 11:00 17,3 C 18,0 C 17,9 C 21,4 C 21,4 C 4,1 C 78 % 79 % 1011,7 hPa 0,0 l/m 2,9 km/h (1 Bft) SW 225 5 min 13,4 C 21,4 C 5,8 km/h (2 Bft)
01.07.2021 11:05 17,5 C 18,0 C 18,0 C 21,6 C 21,6 C 4,1 C 76 % 78 % 1011,7 hPa 0,0 l/m 3,5 km/h (1 Bft) SW 225 5 min 13,2 C 21,6 C 5,8 km/h (2 Bft)
01.07.2021 11:10 17,4 C 18,0 C 18,1 C 21,8 C 21,8 C 4,4 C 75 % 77 % 1011,7 hPa 0,0 l/m 4,0 km/h (1 Bft) S 180 5 min 12,9 C 21,8 C 5,5 km/h (1 Bft)
01.07.2021 11:15 17,5 C 17,9 C 18,1 C 22,0 C 22,0 C 4,5 C 74 % 75 % 1011,9 hPa 0,0 l/m 4,8 km/h (1 Bft) SO 135 5 min 12,8 C 22,0 C 5,1 km/h (1 Bft)
01.07.2021 11:20 17,4 C 18,0 C 18,3 C 22,1 C 22,1 C 4,7 C 74 % 76 % 1011,9 hPa 0,0 l/m 4,5 km/h (1 Bft) W-SW 247 5 min 12,7 C 22,1 C 3,1 km/h (1 Bft)
01.07.2021 11:25 17,7 C 17,9 C 18,5 C 22,8 C 22,8 C 5,1 C 75 % 75 % 1011,9 hPa 0,0 l/m 3,7 km/h (1 Bft) NO 45 5 min 13,2 C 22,8 C 15,8 km/h (3 Bft)
01.07.2021 11:30 17,9 C 17,9 C 18,5 C 22,8 C 22,8 C 4,9 C 74 % 75 % 1011,9 hPa 0,0 l/m 3,5 km/h (1 Bft) W-SW 247 5 min 13,2 C 22,8 C 3,2 km/h (1 Bft)
01.07.2021 11:35 17,9 C 17,8 C 18,6 C 23,0 C 23,0 C 5,1 C 73 % 74 % 1011,9 hPa 0,0 l/m 4,3 km/h (1 Bft) W-SW 247 5 min 13,0 C 23,0 C 13,2 km/h (3 Bft)
01.07.2021 11:40 17,9 C 17,8 C 18,6 C 22,7 C 22,7 C 4,8 C 73 % 74 % 1011,9 hPa 0,0 l/m 4,5 km/h (1 Bft) W-SW 247 5 min 13,0 C 22,7 C 7,1 km/h (2 Bft)
01.07.2021 11:45 18,1 C 17,8 C 18,7 C 22,8 C 22,8 C 4,7 C 73 % 74 % 1011,9 hPa 0,0 l/m 4,3 km/h (1 Bft) SW 225 5 min 13,2 C 22,8 C 10,8 km/h (2 Bft)
01.07.2021 11:50 18,0 C 17,8 C 18,7 C 22,8 C 22,8 C 4,8 C 74 % 75 % 1011,9 hPa 0,0 l/m 3,5 km/h (1 Bft) S 180 5 min 13,3 C 22,8 C 2,9 km/h (1 Bft)
01.07.2021 11:55 18,2 C 17,8 C 18,8 C 23,0 C 23,0 C 4,8 C 74 % 75 % 1012,1 hPa 0,0 l/m 3,4 km/h (1 Bft) S-SO 157 5 min 13,5 C 23,0 C 4,0 km/h (1 Bft)
01.07.2021 12:00 18,1 C 17,8 C 18,6 C 22,4 C 22,4 C 4,3 C 73 % 74 % 1012,1 hPa 0,0 l/m 3,4 km/h (1 Bft) W 270 5 min 13,2 C 22,4 C 3,9 km/h (1 Bft)
01.07.2021 12:05 17,9 C 17,8 C 18,5 C 21,7 C 21,7 C 3,8 C 73 % 74 % 1012,1 hPa 0,0 l/m 4,0 km/h (1 Bft) W-SW 247 5 min 13,0 C 21,7 C 4,3 km/h (1 Bft)
01.07.2021 12:10 17,8 C 17,9 C 18,5 C 21,5 C 21,5 C 3,7 C 73 % 74 % 1012,1 hPa 0,0 l/m 3,7 km/h (1 Bft) W-NW 292 5 min 12,9 C 21,5 C 10,0 km/h (2 Bft)
01.07.2021 12:15 18,0 C 17,8 C 18,6 C 22,1 C 22,1 C 4,1 C 74 % 75 % 1012,0 hPa 0,0 l/m 3,1 km/h (1 Bft) S-SO 157 5 min 13,3 C 22,1 C 2,4 km/h (1 Bft)
01.07.2021 12:20 18,3 C 17,8 C 18,8 C 22,7 C 22,7 C 4,4 C 74 % 75 % 1012,0 hPa 0,0 l/m 3,1 km/h (1 Bft) S-SW 202 5 min 13,6 C 22,7 C 4,8 km/h (1 Bft)
01.07.2021 12:25 18,3 C 17,8 C 18,9 C 23,0 C 23,0 C 4,7 C 73 % 74 % 1012,0 hPa 0,0 l/m 3,4 km/h (1 Bft) SW 225 5 min 13,4 C 23,0 C 17,4 km/h (3 Bft)
01.07.2021 12:30 18,4 C 17,8 C 19,1 C 23,2 C 23,2 C 4,8 C 73 % 74 % 1012,0 hPa 0,0 l/m 3,7 km/h (1 Bft) N-NW 337 5 min 13,5 C 23,2 C 3,5 km/h (1 Bft)
01.07.2021 12:35 18,7 C 17,8 C 19,3 C 23,8 C 23,8 C 5,1 C 72 % 73 % 1011,8 hPa 0,0 l/m 4,0 km/h (1 Bft) S-SW 202 5 min 13,5 C 23,8 C 3,7 km/h (1 Bft)
01.07.2021 12:40 18,7 C 17,8 C 19,3 C 23,7 C 23,7 C 5,0 C 72 % 73 % 1011,8 hPa 0,0 l/m 3,9 km/h (1 Bft) S 180 5 min 13,5 C 23,7 C 4,3 km/h (1 Bft)
01.07.2021 12:45 18,7 C 17,8 C 19,1 C 23,5 C 23,5 C 4,8 C 71 % 72 % 1011,8 hPa 0,0 l/m 3,9 km/h (1 Bft) S-SW 202 5 min 13,3 C 23,5 C 2,7 km/h (1 Bft)
01.07.2021 12:50 18,6 C 17,8 C 19,0 C 23,1 C 23,1 C 4,5 C 72 % 73 % 1011,8 hPa 0,0 l/m 3,2 km/h (1 Bft) SW 225 5 min 13,4 C 23,1 C 1,8 km/h (1 Bft)
01.07.2021 12:55 18,7 C 17,8 C 18,9 C 22,6 C 22,6 C 3,9 C 72 % 75 % 1012,1 hPa 0,0 l/m 2,1 km/h (1 Bft) S-SW 202 5 min 13,5 C 22,6 C 1,8 km/h (1 Bft)
01.07.2021 13:00 18,5 C 17,8 C 18,8 C 22,0 C 22,0 C 3,5 C 72 % 74 % 1012,1 hPa 0,0 l/m 2,1 km/h (1 Bft) SW 225 5 min 13,4 C 22,0 C 2,6 km/h (1 Bft)
01.07.2021 13:05 18,5 C 17,8 C 18,7 C 21,3 C 21,3 C 2,8 C 72 % 74 % 1012,1 hPa 0,0 l/m 2,4 km/h (1 Bft) SW 225 0 min 13,4 C 21,3 C 2,3 km/h (1 Bft)
01.07.2021 13:10 18,4 C 17,8 C 18,6 C 21,3 C 21,3 C 2,9 C 73 % 75 % 1012,1 hPa 0,0 l/m 2,4 km/h (1 Bft) SW 225 0 min 13,5 C 21,3 C 2,4 km/h (1 Bft)
01.07.2021 13:15 18,5 C 17,8 C 18,9 C 22,1 C 22,1 C 3,6 C 73 % 75 % 1012,2 hPa 0,0 l/m 2,4 km/h (1 Bft) SW 225 5 min 13,6 C 22,1 C 4,7 km/h (1 Bft)
01.07.2021 13:20 18,7 C 17,8 C 19,1 C 22,6 C 22,6 C 3,9 C 72 % 74 % 1012,2 hPa 0,0 l/m 2,9 km/h (1 Bft) SW 225 5 min 13,5 C 22,6 C 5,8 km/h (2 Bft)
01.07.2021 13:25 18,7 C 17,8 C 19,1 C 22,5 C 22,5 C 3,8 C 71 % 73 % 1012,2 hPa 0,0 l/m 3,7 km/h (1 Bft) SW 225 5 min 13,3 C 22,5 C 2,4 km/h (1 Bft)
01.07.2021 13:30 18,7 C 17,8 C 19,0 C 22,3 C 22,3 C 3,6 C 71 % 73 % 1012,2 hPa 0,0 l/m 3,7 km/h (1 Bft) S 180 5 min 13,3 C 22,3 C 6,9 km/h (2 Bft)
01.07.2021 13:35 18,6 C 17,8 C 19,3 C 22,5 C 22,5 C 3,9 C 71 % 73 % 1012,2 hPa 0,0 l/m 4,2 km/h (1 Bft) W-SW 247 5 min 13,2 C 22,5 C 21,9 km/h (4 Bft)
01.07.2021 13:40 18,6 C 17,8 C 19,4 C 23,0 C 23,0 C 4,4 C 71 % 72 % 1012,2 hPa 0,0 l/m 4,5 km/h (1 Bft) W-SW 247 5 min 13,2 C 23,0 C 10,9 km/h (2 Bft)
01.07.2021 13:45 18,7 C 17,8 C 19,2 C 23,0 C 23,0 C 4,3 C 71 % 73 % 1012,2 hPa 0,0 l/m 4,2 km/h (1 Bft) W-SW 247 5 min 13,3 C 23,0 C 6,3 km/h (2 Bft)
01.07.2021 13:50 18,6 C 17,8 C 19,2 C 22,8 C 22,8 C 4,2 C 71 % 74 % 1012,2 hPa 0,0 l/m 3,7 km/h (1 Bft) S 180 5 min 13,2 C 22,8 C 4,2 km/h (1 Bft)
01.07.2021 13:55 18,6 C 17,8 C 19,1 C 22,7 C 22,7 C 4,1 C 70 % 73 % 1012,4 hPa 0,0 l/m 3,5 km/h (1 Bft) W-SW 247 5 min 13,0 C 22,7 C 3,7 km/h (1 Bft)
01.07.2021 14:00 18,6 C 17,8 C 19,2 C 22,7 C 22,7 C 4,1 C 70 % 72 % 1012,4 hPa 0,0 l/m 3,7 km/h (1 Bft) S-SW 202 5 min 13,0 C 22,7 C 5,5 km/h (1 Bft)
01.07.2021 14:05 18,5 C 17,8 C 19,0 C 22,2 C 22,2 C 3,7 C 69 % 71 % 1012,4 hPa 0,0 l/m 4,0 km/h (1 Bft) SO 135 5 min 12,7 C 22,2 C 6,4 km/h (2 Bft)
01.07.2021 14:10 18,5 C 17,8 C 18,9 C 21,8 C 21,8 C 3,3 C 69 % 71 % 1012,4 hPa 0,0 l/m 4,2 km/h (1 Bft) S-SW 202 5 min 12,7 C 21,8 C 4,5 km/h (1 Bft)
01.07.2021 14:15 18,3 C 17,8 C 18,9 C 21,5 C 21,5 C 3,2 C 70 % 72 % 1012,4 hPa 0,0 l/m 4,2 km/h (1 Bft) S-SO 157 0 min 12,7 C 21,5 C 6,3 km/h (2 Bft)
01.07.2021 14:20 18,3 C 17,8 C 18,8 C 21,3 C 21,3 C 3,0 C 70 % 71 % 1012,4 hPa 0,0 l/m 4,3 km/h (1 Bft) SW 225 0 min 12,7 C 21,3 C 6,0 km/h (2 Bft)
01.07.2021 14:25 18,3 C 17,8 C 18,8 C 21,1 C 21,1 C 2,8 C 70 % 72 % 1012,4 hPa 0,0 l/m 4,7 km/h (1 Bft) S 180 0 min 12,7 C 21,1 C 4,2 km/h (1 Bft)
01.07.2021 14:30 18,3 C 17,8 C 18,9 C 21,3 C 21,3 C 3,0 C 70 % 72 % 1012,4 hPa 0,0 l/m 4,2 km/h (1 Bft) W 270 0 min 12,7 C 21,3 C 6,8 km/h (2 Bft)
01.07.2021 14:35 18,5 C 17,8 C 19,1 C 21,9 C 21,9 C 3,4 C 70 % 72 % 1012,4 hPa 0,0 l/m 3,7 km/h (1 Bft) S-SO 157 5 min 12,9 C 21,9 C 4,8 km/h (1 Bft)
01.07.2021 14:40 18,5 C 17,8 C 19,1 C 22,2 C 22,2 C 3,7 C 71 % 71 % 1012,4 hPa 0,0 l/m 4,0 km/h (1 Bft) W-SW 247 5 min 13,1 C 22,2 C 2,4 km/h (1 Bft)
01.07.2021 14:45 18,7 C 17,8 C 19,2 C 22,5 C 22,5 C 3,8 C 70 % 72 % 1012,4 hPa 0,0 l/m 3,4 km/h (1 Bft) S 180 5 min 13,1 C 22,5 C 3,5 km/h (1 Bft)
01.07.2021 14:50 18,7 C 17,8 C 19,3 C 22,6 C 22,6 C 3,9 C 69 % 70 % 1012,4 hPa 0,0 l/m 3,5 km/h (1 Bft) S 180 5 min 12,9 C 22,6 C 5,5 km/h (1 Bft)
01.07.2021 14:55 18,7 C 17,8 C 19,3 C 22,7 C 22,7 C 4,0 C 69 % 70 % 1012,8 hPa 0,0 l/m 4,5 km/h (1 Bft) SW 225 5 min 12,9 C 22,7 C 4,2 km/h (1 Bft)
01.07.2021 15:00 18,9 C 17,8 C 19,5 C 23,3 C 23,3 C 4,4 C 68 % 70 % 1012,8 hPa 0,0 l/m 3,9 km/h (1 Bft) N-NO 22 5 min 12,9 C 23,3 C 4,0 km/h (1 Bft)
01.07.2021 15:05 19,3 C 17,8 C 19,9 C 24,4 C 24,4 C 5,1 C 68 % 70 % 1012,8 hPa 0,0 l/m 3,4 km/h (1 Bft) W-NW 292 5 min 13,2 C 24,4 C 8,5 km/h (2 Bft)
01.07.2021 15:10 19,4 C 17,8 C 19,9 C 24,8 C 24,8 C 5,4 C 68 % 69 % 1012,8 hPa 0,0 l/m 3,5 km/h (1 Bft) SW 225 5 min 13,3 C 24,8 C 4,7 km/h (1 Bft)
01.07.2021 15:15 19,1 C 17,8 C 19,6 C 23,8 C 23,8 C 4,7 C 67 % 69 % 1012,6 hPa 0,0 l/m 4,0 km/h (1 Bft) W 270 5 min 12,8 C 23,8 C 4,0 km/h (1 Bft)
01.07.2021 15:20 18,9 C 17,8 C 19,3 C 22,8 C 22,8 C 3,9 C 68 % 69 % 1012,6 hPa 0,0 l/m 3,5 km/h (1 Bft) SW 225 5 min 12,9 C 22,8 C 2,7 km/h (1 Bft)
01.07.2021 15:25 18,7 C 17,8 C 18,9 C 21,6 C 21,6 C 2,9 C 68 % 70 % 1012,6 hPa 0,0 l/m 3,1 km/h (1 Bft) W-SW 247 0 min 12,7 C 21,6 C 6,1 km/h (2 Bft)
01.07.2021 15:30 18,5 C 17,8 C 18,6 C 20,6 C 20,6 C 2,1 C 69 % 70 % 1012,6 hPa 0,0 l/m 3,5 km/h (1 Bft) W-SW 247 0 min 12,7 C 20,6 C 6,3 km/h (2 Bft)
01.07.2021 15:35 18,2 C 17,8 C 18,4 C 19,7 C 19,7 C 1,5 C 69 % 71 % 1012,8 hPa 0,0 l/m 3,7 km/h (1 Bft) SW 225 0 min 12,4 C 19,7 C 4,3 km/h (1 Bft)
01.07.2021 15:40 18,2 C 17,8 C 18,3 C 19,4 C 19,4 C 1,2 C 70 % 71 % 1012,8 hPa 0,0 l/m 3,5 km/h (1 Bft) W-SW 247 0 min 12,6 C 19,4 C 4,7 km/h (1 Bft)
01.07.2021 15:45 18,2 C 17,8 C 18,5 C 20,0 C 20,0 C 1,8 C 71 % 72 % 1012,8 hPa 0,0 l/m 3,1 km/h (1 Bft) S 180 0 min 12,9 C 20,0 C 2,9 km/h (1 Bft)
01.07.2021 15:50 18,3 C 17,8 C 18,6 C 20,6 C 20,6 C 2,3 C 70 % 72 % 1012,8 hPa 0,0 l/m 3,2 km/h (1 Bft) SW 225 0 min 12,7 C 20,6 C 3,9 km/h (1 Bft)
01.07.2021 15:55 18,3 C 17,8 C 18,7 C 20,9 C 20,9 C 2,6 C 70 % 71 % 1012,9 hPa 0,0 l/m 3,4 km/h (1 Bft) W-SW 247 0 min 12,7 C 20,9 C 2,7 km/h (1 Bft)
01.07.2021 16:00 18,4 C 17,8 C 18,6 C 21,1 C 21,1 C 2,7 C 70 % 71 % 1012,9 hPa 0,0 l/m 3,9 km/h (1 Bft) SW 225 0 min 12,8 C 21,1 C 2,9 km/h (1 Bft)
01.07.2021 16:05 18,3 C 17,8 C 18,3 C 20,5 C 20,5 C 2,2 C 70 % 71 % 1012,9 hPa 0,0 l/m 4,2 km/h (1 Bft) W-SW 247 0 min 12,7 C 20,5 C 5,5 km/h (1 Bft)
01.07.2021 16:10 18,2 C 17,8 C 18,3 C 20,0 C 20,0 C 1,8 C 70 % 72 % 1012,9 hPa 0,0 l/m 3,5 km/h (1 Bft) W 270 0 min 12,6 C 20,0 C 3,4 km/h (1 Bft)
01.07.2021 16:15 18,1 C 17,7 C 18,1 C 19,5 C 19,5 C 1,4 C 70 % 72 % 1013,2 hPa 0,0 l/m 3,2 km/h (1 Bft) W-SW 247 0 min 12,5 C 19,5 C 2,7 km/h (1 Bft)
01.07.2021 16:20 18,0 C 17,7 C 18,3 C 19,7 C 19,7 C 1,7 C 70 % 72 % 1013,2 hPa 0,0 l/m 3,1 km/h (1 Bft) SW 225 0 min 12,4 C 19,7 C 2,6 km/h (1 Bft)
01.07.2021 16:25 18,1 C 17,8 C 18,6 C 20,7 C 20,7 C 2,6 C 70 % 72 % 1013,2 hPa 0,0 l/m 2,9 km/h (1 Bft) SW 225 0 min 12,5 C 20,7 C 4,7 km/h (1 Bft)
01.07.2021 16:30 18,3 C 17,8 C 18,7 C 21,3 C 21,3 C 3,0 C 70 % 71 % 1013,2 hPa 0,0 l/m 3,2 km/h (1 Bft) S 180 0 min 12,7 C 21,3 C 3,4 km/h (1 Bft)
01.07.2021 16:35 18,4 C 17,8 C 18,7 C 21,7 C 21,7 C 3,3 C 70 % 71 % 1013,4 hPa 0,0 l/m 3,2 km/h (1 Bft) S-SO 157 5 min 12,8 C 21,7 C 2,9 km/h (1 Bft)
01.07.2021 16:40 18,5 C 17,8 C 18,7 C 21,8 C 21,8 C 3,3 C 70 % 72 % 1013,4 hPa 0,0 l/m 2,9 km/h (1 Bft) W 270 5 min 12,9 C 21,8 C 3,5 km/h (1 Bft)
01.07.2021 16:45 18,5 C 17,8 C 18,6 C 21,3 C 21,3 C 2,8 C 70 % 72 % 1013,4 hPa 0,0 l/m 2,9 km/h (1 Bft) SW 225 0 min 12,9 C 21,3 C 3,5 km/h (1 Bft)
01.07.2021 16:50 18,4 C 17,8 C 18,5 C 20,9 C 20,9 C 2,5 C 70 % 72 % 1013,4 hPa 0,0 l/m 2,7 km/h (1 Bft) S-SW 202 0 min 12,8 C 20,9 C 2,9 km/h (1 Bft)
01.07.2021 16:55 18,2 C 17,8 C 18,4 C 20,2 C 20,2 C 2,0 C 70 % 72 % 1013,5 hPa 0,0 l/m 3,2 km/h (1 Bft) W-SW 247 0 min 12,6 C 20,2 C 4,3 km/h (1 Bft)
01.07.2021 17:00 18,1 C 17,8 C 18,3 C 20,1 C 20,1 C 2,0 C 70 % 72 % 1013,5 hPa 0,0 l/m 3,1 km/h (1 Bft) W-SW 247 0 min 12,5 C 20,1 C 8,7 km/h (2 Bft)
01.07.2021 17:05 18,1 C 17,8 C 18,2 C 19,9 C 19,9 C 1,8 C 70 % 73 % 1013,5 hPa 0,0 l/m 2,6 km/h (1 Bft) W-SW 247 0 min 12,5 C 19,9 C 1,8 km/h (1 Bft)
01.07.2021 17:10 18,1 C 17,7 C 18,2 C 19,9 C 19,9 C 1,8 C 70 % 73 % 1013,5 hPa 0,0 l/m 2,7 km/h (1 Bft) O-SO 112 0 min 12,5 C 19,9 C 4,8 km/h (1 Bft)
01.07.2021 17:15 18,1 C 17,7 C 18,1 C 19,7 C 19,7 C 1,6 C 70 % 72 % 1013,6 hPa 0,0 l/m 3,2 km/h (1 Bft) S 180 0 min 12,5 C 19,7 C 3,5 km/h (1 Bft)
01.07.2021 17:20 18,0 C 17,7 C 18,1 C 19,7 C 19,7 C 1,7 C 70 % 73 % 1013,6 hPa 0,0 l/m 3,4 km/h (1 Bft) S 180 0 min 12,4 C 19,7 C 2,3 km/h (1 Bft)
01.07.2021 17:25 17,9 C 17,7 C 17,9 C 19,5 C 19,5 C 1,6 C 70 % 72 % 1013,6 hPa 0,0 l/m 3,2 km/h (1 Bft) SW 225 0 min 12,3 C 19,5 C 4,3 km/h (1 Bft)
01.07.2021 17:30 17,9 C 17,7 C 17,9 C 19,2 C 19,2 C 1,3 C 70 % 73 % 1013,6 hPa 0,0 l/m 3,2 km/h (1 Bft) W 270 0 min 12,3 C 19,2 C 4,3 km/h (1 Bft)
01.07.2021 17:35 17,7 C 17,7 C 17,7 C 19,0 C 19,0 C 1,3 C 71 % 73 % 1013,8 hPa 0,0 l/m 3,2 km/h (1 Bft) W-SW 247 0 min 12,4 C 19,0 C 4,8 km/h (1 Bft)
01.07.2021 17:40 17,7 C 17,8 C 17,6 C 18,9 C 18,9 C 1,2 C 71 % 73 % 1013,8 hPa 0,0 l/m 3,1 km/h (1 Bft) W-SW 247 0 min 12,4 C 18,9 C 3,2 km/h (1 Bft)
01.07.2021 17:45 17,6 C 17,8 C 17,5 C 18,7 C 18,7 C 1,1 C 71 % 73 % 1013,8 hPa 0,0 l/m 2,9 km/h (1 Bft) SW 225 0 min 12,3 C 18,7 C 4,0 km/h (1 Bft)
01.07.2021 17:50 17,5 C 17,8 C 17,5 C 18,5 C 18,5 C 1,0 C 71 % 73 % 1013,8 hPa 0,0 l/m 2,7 km/h (1 Bft) SW 225 0 min 12,2 C 18,5 C 5,0 km/h (1 Bft)
01.07.2021 17:55 17,5 C 17,8 C 17,3 C 18,2 C 18,2 C 0,7 C 72 % 74 % 1014,0 hPa 0,0 l/m 2,4 km/h (1 Bft) S-SW 202 0 min 12,4 C 18,2 C 3,1 km/h (1 Bft)
01.07.2021 18:00 17,3 C 17,8 C 17,3 C 18,0 C 18,0 C 0,7 C 72 % 74 % 1014,0 hPa 0,0 l/m 2,6 km/h (1 Bft) W-SW 247 0 min 12,2 C 18,0 C 3,1 km/h (1 Bft)
01.07.2021 18:05 17,3 C 17,8 C 17,2 C 17,8 C 17,8 C 0,5 C 73 % 75 % 1014,0 hPa 0,0 l/m 2,3 km/h (1 Bft) SW 225 0 min 12,4 C 17,8 C 0,0 km/h (0 Bft)
01.07.2021 18:10 17,2 C 17,8 C 17,1 C 17,7 C 17,7 C 0,5 C 73 % 75 % 1014,0 hPa 0,0 l/m 2,1 km/h (1 Bft) S-SW 202 0 min 12,3 C 17,7 C 2,4 km/h (1 Bft)
01.07.2021 18:15 17,1 C 17,8 C 17,2 C 17,8 C 17,8 C 0,7 C 73 % 76 % 1013,9 hPa 0,0 l/m 2,3 km/h (1 Bft) S 180 0 min 12,2 C 17,8 C 4,0 km/h (1 Bft)
01.07.2021 18:20 17,1 C 17,8 C 17,2 C 17,9 C 17,9 C 0,8 C 73 % 75 % 1013,9 hPa 0,0 l/m 2,6 km/h (1 Bft) W 270 0 min 12,2 C 17,9 C 3,7 km/h (1 Bft)
01.07.2021 18:25 17,1 C 17,8 C 17,3 C 18,3 C 18,3 C 1,2 C 73 % 76 % 1013,9 hPa 0,0 l/m 3,2 km/h (1 Bft) W-SW 247 0 min 12,2 C 18,3 C 2,9 km/h (1 Bft)
01.07.2021 18:30 17,1 C 17,8 C 17,2 C 18,3 C 18,3 C 1,2 C 73 % 75 % 1013,9 hPa 0,0 l/m 3,2 km/h (1 Bft) NW 315 0 min 12,2 C 18,3 C 5,1 km/h (1 Bft)
01.07.2021 18:35 17,0 C 17,8 C 17,0 C 17,9 C 17,9 C 0,9 C 73 % 75 % 1013,8 hPa 0,0 l/m 3,7 km/h (1 Bft) W-SW 247 0 min 12,1 C 17,9 C 7,2 km/h (2 Bft)
01.07.2021 18:40 16,9 C 17,8 C 16,9 C 17,6 C 17,6 C 0,7 C 73 % 75 % 1013,8 hPa 0,0 l/m 3,5 km/h (1 Bft) W-SW 247 0 min 12,0 C 17,6 C 3,9 km/h (1 Bft)
01.07.2021 18:45 16,8 C 17,8 C 16,7 C 17,2 C 17,2 C 0,4 C 73 % 75 % 1013,8 hPa 0,0 l/m 3,2 km/h (1 Bft) SW 225 0 min 11,9 C 17,2 C 3,5 km/h (1 Bft)
01.07.2021 18:50 16,7 C 17,8 C 16,7 C 17,1 C 17,1 C 0,4 C 74 % 76 % 1013,8 hPa 0,0 l/m 2,6 km/h (1 Bft) SW 225 0 min 12,0 C 17,1 C 2,1 km/h (1 Bft)
01.07.2021 18:55 16,7 C 17,8 C 16,6 C 16,9 C 16,9 C 0,2 C 74 % 76 % 1014,2 hPa 0,0 l/m 2,7 km/h (1 Bft) W 270 0 min 12,0 C 16,9 C 2,9 km/h (1 Bft)
01.07.2021 19:00 16,6 C 17,8 C 16,5 C 16,8 C 16,8 C 0,2 C 74 % 77 % 1014,2 hPa 0,0 l/m 2,6 km/h (1 Bft) SW 225 0 min 11,9 C 16,8 C 2,1 km/h (1 Bft)
01.07.2021 19:05 16,4 C 17,8 C 16,4 C 16,7 C 16,7 C 0,3 C 74 % 77 % 1014,2 hPa 0,0 l/m 2,3 km/h (1 Bft) SW 225 0 min 11,8 C 16,7 C 5,1 km/h (1 Bft)
01.07.2021 19:10 16,4 C 17,8 C 16,4 C 16,7 C 16,7 C 0,3 C 75 % 77 % 1014,2 hPa 0,0 l/m 2,7 km/h (1 Bft) W-SW 247 0 min 12,0 C 16,7 C 2,3 km/h (1 Bft)
01.07.2021 19:15 16,3 C 17,8 C 16,4 C 16,7 C 16,7 C 0,4 C 75 % 77 % 1014,3 hPa 0,0 l/m 2,3 km/h (1 Bft) W-SW 247 0 min 11,9 C 16,7 C 2,3 km/h (1 Bft)
01.07.2021 19:20 16,3 C 17,8 C 16,3 C 16,7 C 16,7 C 0,4 C 76 % 77 % 1014,3 hPa 0,0 l/m 1,8 km/h (1 Bft) W-NW 292 0 min 12,1 C 16,7 C 3,2 km/h (1 Bft)
01.07.2021 19:25 16,3 C 17,8 C 16,3 C 16,6 C 16,6 C 0,3 C 76 % 77 % 1014,3 hPa 0,0 l/m 2,6 km/h (1 Bft) S-SW 202 0 min 12,1 C 16,6 C 4,5 km/h (1 Bft)
01.07.2021 19:30 16,1 C 17,8 C 16,2 C 16,5 C 16,5 C 0,4 C 76 % 77 % 1014,3 hPa 0,0 l/m 3,4 km/h (1 Bft) SW 225 0 min 11,9 C 16,5 C 3,9 km/h (1 Bft)
01.07.2021 19:35 16,0 C 17,8 C 16,1 C 16,4 C 16,4 C 0,4 C 76 % 78 % 1014,4 hPa 0,0 l/m 3,1 km/h (1 Bft) S 180 0 min 11,8 C 16,4 C 2,6 km/h (1 Bft)
01.07.2021 19:40 16,0 C 17,8 C 16,0 C 16,2 C 16,2 C 0,2 C 76 % 78 % 1014,4 hPa 0,0 l/m 2,4 km/h (1 Bft) SW 225 0 min 11,8 C 16,2 C 3,1 km/h (1 Bft)
01.07.2021 19:45 15,9 C 17,8 C 15,9 C 16,2 C 16,2 C 0,3 C 76 % 78 % 1014,4 hPa 0,0 l/m 2,4 km/h (1 Bft) S 180 0 min 11,7 C 16,2 C 2,9 km/h (1 Bft)
01.07.2021 19:50 15,9 C 17,8 C 16,0 C 16,1 C 16,1 C 0,2 C 77 % 79 % 1014,4 hPa 0,0 l/m 2,6 km/h (1 Bft) SW 225 0 min 11,9 C 16,1 C 2,4 km/h (1 Bft)
01.07.2021 19:55 15,9 C 17,8 C 15,9 C 16,0 C 16,0 C 0,1 C 77 % 79 % 1014,7 hPa 0,0 l/m 2,1 km/h (1 Bft) SW 225 0 min 11,9 C 16,0 C 2,6 km/h (1 Bft)
01.07.2021 20:00 15,9 C 17,8 C 15,9 C 16,0 C 16,0 C 0,1 C 77 % 79 % 1014,7 hPa 0,0 l/m 1,9 km/h (1 Bft) W-SW 247 0 min 11,9 C 16,0 C 1,9 km/h (1 Bft)
01.07.2021 20:05 15,9 C 17,8 C 15,9 C 16,0 C 16,0 C 0,1 C 78 % 79 % 1014,7 hPa 0,0 l/m 1,4 km/h (1 Bft) SW 225 0 min 12,1 C 16,0 C 0,0 km/h (0 Bft)
01.07.2021 20:10 15,9 C 17,8 C 15,9 C 16,0 C 16,0 C 0,1 C 78 % 80 % 1014,7 hPa 0,0 l/m 0,6 km/h (0 Bft) SW 225 0 min 12,1 C 16,0 C 0,0 km/h (0 Bft)
01.07.2021 20:15 15,9 C 17,8 C 15,9 C 16,0 C 16,0 C 0,1 C 78 % 80 % 1014,8 hPa 0,0 l/m 0,3 km/h (0 Bft) NW 315 0 min 12,1 C 16,0 C 2,3 km/h (1 Bft)
01.07.2021 20:20 15,8 C 17,8 C 15,9 C 16,0 C 16,0 C 0,2 C 79 % 80 % 1014,8 hPa 0,0 l/m 0,3 km/h (0 Bft) SW 225 0 min 12,2 C 16,0 C 0,0 km/h (0 Bft)
01.07.2021 20:25 15,7 C 17,8 C 15,8 C 16,0 C 16,0 C 0,3 C 79 % 81 % 1014,8 hPa 0,0 l/m 1,0 km/h (0 Bft) W-SW 247 0 min 12,1 C 16,0 C 0,0 km/h (0 Bft)
01.07.2021 20:30 15,7 C 17,8 C 15,8 C 16,0 C 16,0 C 0,3 C 79 % 81 % 1014,8 hPa 0,0 l/m 1,0 km/h (0 Bft) SW 225 0 min 12,1 C 16,0 C 2,1 km/h (1 Bft)
01.07.2021 20:35 15,7 C 17,8 C 15,8 C 15,9 C 15,9 C 0,2 C 79 % 81 % 1014,6 hPa 0,0 l/m 0,6 km/h (0 Bft) W-SW 247 0 min 12,1 C 15,9 C 0,0 km/h (0 Bft)
01.07.2021 20:40 15,7 C 17,8 C 15,8 C 15,8 C 15,8 C 0,1 C 79 % 81 % 1014,6 hPa 0,0 l/m 0,6 km/h (0 Bft) W 270 0 min 12,1 C 15,8 C 1,6 km/h (1 Bft)
01.07.2021 20:45 15,7 C 17,7 C 15,7 C 15,8 C 15,8 C 0,1 C 79 % 81 % 1014,6 hPa 0,0 l/m 0,5 km/h (0 Bft) S 180 0 min 12,1 C 15,8 C 0,0 km/h (0 Bft)
01.07.2021 20:50 15,7 C 17,7 C 15,7 C 15,8 C 15,8 C 0,1 C 79 % 81 % 1014,6 hPa 0,0 l/m 0,5 km/h (0 Bft) S-SO 157 0 min 12,1 C 15,8 C 0,0 km/h (0 Bft)
01.07.2021 20:55 15,6 C 17,7 C 15,6 C 15,7 C 15,7 C 0,1 C 79 % 81 % 1014,8 hPa 0,0 l/m 1,0 km/h (0 Bft) W-SW 247 0 min 12,0 C 15,7 C 0,0 km/h (0 Bft)
01.07.2021 21:00 15,7 C 17,7 C 15,6 C 15,7 C 15,7 C 0,0 C 79 % 81 % 1014,8 hPa 0,0 l/m 1,4 km/h (1 Bft) O-NO 67 0 min 12,1 C 15,7 C 4,7 km/h (1 Bft)
01.07.2021 21:05 15,6 C 17,7 C 15,5 C 15,6 C 15,6 C 0,0 C 79 % 81 % 1014,8 hPa 0,0 l/m 1,4 km/h (1 Bft) S-SW 202 0 min 12,0 C 15,6 C 2,6 km/h (1 Bft)
01.07.2021 21:10 15,5 C 17,7 C 15,5 C 15,5 C 15,5 C 0,0 C 79 % 81 % 1014,8 hPa 0,0 l/m 1,4 km/h (1 Bft) SW 225 0 min 11,9 C 15,5 C 2,3 km/h (1 Bft)
01.07.2021 21:15 15,4 C 17,7 C 15,4 C 15,5 C 15,5 C 0,1 C 79 % 81 % 1014,9 hPa 0,0 l/m 1,4 km/h (1 Bft) S-SW 202 0 min 11,8 C 15,5 C 2,4 km/h (1 Bft)
01.07.2021 21:20 15,5 C 17,7 C 15,4 C 15,5 C 15,4 C 0,0 C 79 % 81 % 1014,9 hPa 0,0 l/m 1,9 km/h (1 Bft) W-SW 247 0 min 11,9 C 15,4 C 4,3 km/h (1 Bft)
01.07.2021 21:25 15,4 C 17,7 C 15,3 C 15,4 C 15,3 C 0,0 C 79 % 81 % 1014,9 hPa 0,0 l/m 1,6 km/h (1 Bft) S-SW 202 0 min 11,8 C 15,3 C 1,8 km/h (1 Bft)
01.07.2021 21:30 15,3 C 17,7 C 15,3 C 15,3 C 15,3 C 0,0 C 80 % 81 % 1014,9 hPa 0,0 l/m 1,3 km/h (1 Bft) W-SW 247 0 min 11,9 C 15,3 C 3,4 km/h (1 Bft)
01.07.2021 21:35 15,3 C 17,7 C 15,3 C 15,3 C 15,3 C 0,0 C 80 % 81 % 1015,1 hPa 0,0 l/m 1,0 km/h (0 Bft) SW 225 0 min 11,9 C 15,3 C 1,6 km/h (1 Bft)
01.07.2021 21:40 15,3 C 17,7 C 15,3 C 15,3 C 15,2 C 0,0 C 80 % 82 % 1015,1 hPa 0,0 l/m 1,3 km/h (1 Bft) S-SW 202 0 min 11,9 C 15,2 C 5,3 km/h (1 Bft)
01.07.2021 21:45 15,2 C 17,7 C 15,2 C 15,2 C 15,2 C 0,0 C 80 % 82 % 1015,1 hPa 0,0 l/m 1,4 km/h (1 Bft) SW 225 0 min 11,8 C 15,2 C 0,0 km/h (0 Bft)
01.07.2021 21:50 15,3 C 17,7 C 15,2 C 15,3 C 15,2 C 0,0 C 80 % 82 % 1015,1 hPa 0,0 l/m 1,3 km/h (1 Bft) SW 225 0 min 11,9 C 15,2 C 1,8 km/h (1 Bft)
01.07.2021 21:55 15,2 C 17,7 C 15,1 C 15,2 C 15,1 C 0,0 C 80 % 82 % 1015,2 hPa 0,0 l/m 1,1 km/h (1 Bft) W-SW 247 0 min 11,8 C 15,1 C 2,6 km/h (1 Bft)
01.07.2021 22:00 15,1 C 17,7 C 15,1 C 15,1 C 15,1 C 0,0 C 80 % 82 % 1015,2 hPa 0,0 l/m 0,8 km/h (0 Bft) S 180 0 min 11,7 C 15,1 C 0,0 km/h (0 Bft)
01.07.2021 22:05 15,1 C 17,7 C 15,1 C 15,1 C 15,0 C 0,0 C 80 % 82 % 1015,2 hPa 0,0 l/m 1,0 km/h (0 Bft) W-SW 247 0 min 11,7 C 15,0 C 2,3 km/h (1 Bft)
01.07.2021 22:10 15,1 C 17,7 C 15,0 C 15,1 C 15,0 C 0,0 C 80 % 82 % 1015,2 hPa 0,0 l/m 1,0 km/h (0 Bft) SW 225 0 min 11,7 C 15,0 C 2,4 km/h (1 Bft)
01.07.2021 22:15 15,0 C 17,7 C 15,0 C 15,0 C 15,0 C 0,0 C 80 % 82 % 1015,4 hPa 0,0 l/m 1,6 km/h (1 Bft) S-SW 202 0 min 11,6 C 15,0 C 2,7 km/h (1 Bft)
01.07.2021 22:20 15,1 C 17,7 C 14,9 C 15,1 C 15,0 C 0,0 C 80 % 82 % 1015,4 hPa 0,0 l/m 1,6 km/h (1 Bft) S-SW 202 0 min 11,7 C 15,0 C 4,3 km/h (1 Bft)
01.07.2021 22:25 15,1 C 17,7 C 14,9 C 15,1 C 15,0 C 0,0 C 80 % 83 % 1015,4 hPa 0,0 l/m 1,6 km/h (1 Bft) S 180 0 min 11,7 C 15,0 C 1,9 km/h (1 Bft)
01.07.2021 22:30 15,0 C 17,7 C 14,9 C 15,0 C 14,9 C 0,0 C 81 % 83 % 1015,4 hPa 0,0 l/m 1,0 km/h (0 Bft) SW 225 0 min 11,8 C 14,9 C 0,0 km/h (0 Bft)
01.07.2021 22:35 15,0 C 17,7 C 14,9 C 15,0 C 14,9 C 0,0 C 81 % 83 % 1015,2 hPa 0,0 l/m 0,5 km/h (0 Bft) SW 225 0 min 11,8 C 14,9 C 2,1 km/h (1 Bft)
01.07.2021 22:40 14,9 C 17,7 C 14,9 C 14,9 C 14,9 C 0,0 C 81 % 83 % 1015,2 hPa 0,0 l/m 0,6 km/h (0 Bft) S-SO 157 0 min 11,7 C 14,9 C 0,0 km/h (0 Bft)
01.07.2021 22:45 14,9 C 17,7 C 14,8 C 14,9 C 14,9 C 0,0 C 81 % 83 % 1015,2 hPa 0,0 l/m 0,8 km/h (0 Bft) SW 225 0 min 11,7 C 14,9 C 1,9 km/h (1 Bft)
01.07.2021 22:50 14,8 C 17,7 C 14,8 C 14,9 C 14,9 C 0,1 C 81 % 83 % 1015,2 hPa 0,0 l/m 1,3 km/h (1 Bft) SW 225 0 min 11,6 C 14,9 C 2,7 km/h (1 Bft)
01.07.2021 22:55 14,8 C 17,8 C 14,8 C 14,9 C 14,9 C 0,1 C 81 % 83 % 1015,2 hPa 0,0 l/m 1,3 km/h (1 Bft) SW 225 0 min 11,6 C 14,9 C 1,8 km/h (1 Bft)
01.07.2021 23:00 14,8 C 17,8 C 14,7 C 14,8 C 14,8 C 0,0 C 81 % 83 % 1015,2 hPa 0,0 l/m 1,1 km/h (1 Bft) W 270 0 min 11,6 C 14,8 C 0,0 km/h (0 Bft)
01.07.2021 23:05 14,9 C 17,8 C 14,7 C 14,8 C 14,7 C 0,0 C 82 % 83 % 1015,2 hPa 0,0 l/m 1,3 km/h (1 Bft) S-SW 202 0 min 11,9 C 14,7 C 4,2 km/h (1 Bft)
01.07.2021 23:10 14,8 C 17,8 C 14,7 C 14,8 C 14,7 C 0,0 C 82 % 83 % 1015,2 hPa 0,0 l/m 1,6 km/h (1 Bft) S-SW 202 0 min 11,8 C 14,7 C 2,1 km/h (1 Bft)
01.07.2021 23:15 14,7 C 17,8 C 14,7 C 14,7 C 14,6 C 0,0 C 82 % 83 % 1015,2 hPa 0,0 l/m 1,6 km/h (1 Bft) SW 225 0 min 11,7 C 14,6 C 2,9 km/h (1 Bft)
01.07.2021 23:20 14,7 C 17,8 C 14,7 C 14,7 C 14,6 C 0,0 C 82 % 83 % 1015,2 hPa 0,0 l/m 1,3 km/h (1 Bft) SW 225 0 min 11,7 C 14,6 C 4,0 km/h (1 Bft)
01.07.2021 23:25 14,7 C 17,8 C 14,7 C 14,7 C 14,7 C 0,0 C 82 % 83 % 1015,2 hPa 0,0 l/m 1,1 km/h (1 Bft) W-SW 247 0 min 11,7 C 14,7 C 4,0 km/h (1 Bft)
01.07.2021 23:30 14,7 C 17,8 C 14,7 C 14,7 C 14,7 C 0,0 C 82 % 83 % 1015,2 hPa 0,0 l/m 1,1 km/h (1 Bft) W-SW 247 0 min 11,7 C 14,7 C 2,7 km/h (1 Bft)
01.07.2021 23:35 14,6 C 17,8 C 14,6 C 14,6 C 14,6 C 0,0 C 82 % 84 % 1015,4 hPa 0,0 l/m 1,3 km/h (1 Bft) W-SW 247 0 min 11,6 C 14,6 C 1,8 km/h (1 Bft)
01.07.2021 23:40 14,7 C 17,8 C 14,6 C 14,7 C 14,6 C 0,0 C 82 % 84 % 1015,4 hPa 0,0 l/m 1,1 km/h (1 Bft) S-SW 202 0 min 11,7 C 14,6 C 1,8 km/h (1 Bft)
01.07.2021 23:45 14,7 C 17,8 C 14,6 C 14,7 C 14,6 C 0,0 C 83 % 84 % 1015,4 hPa 0,0 l/m 1,3 km/h (1 Bft) S-SO 157 0 min 11,8 C 14,6 C 2,1 km/h (1 Bft)
01.07.2021 23:50 14,6 C 17,8 C 14,5 C 14,6 C 14,5 C 0,0 C 83 % 84 % 1015,4 hPa 0,0 l/m 1,0 km/h (0 Bft) SW 225 0 min 11,7 C 14,5 C 0,0 km/h (0 Bft)
01.07.2021 23:55 14,6 C 17,8 C 14,5 C 14,6 C 14,5 C 0,0 C 83 % 84 % 1015,5 hPa 0,0 l/m 1,1 km/h (1 Bft) N-NW 337 0 min 11,7 C 14,5 C 1,6 km/h (1 Bft)
_ Min-Zeit 03:20 16:15 03:40 03:20 03:20 00:00 15:15 15:10 05:55 - 00:05 - - - 03:20 03:20 00:00
Minimum _ 14,4 C 17,7 C 14,3 C 14,1 C 13,5 C 0,0 C 67 % 69 % 1010,4 hPa - 0,0 km/h (0 Bft) - - - 11,5 C 13,5 C 0,0 km/h (0 Bft)
_ Max-Zeit 15:10 00:00 15:05 15:10 15:10 15:10 04:00 03:50 23:55 00:00 11:15 - - 10:35 08:25 15:10 13:35
Maximum _ 19,4 C 18,9 C 19,9 C 24,8 C 24,8 C 5,4 C 85 % 87 % 1015,5 hPa 0,0 l/m 4,8 km/h
SO (1 Bft)
- - 5 min 13,9 C 24,8 C 21,9 km/h
W-SW (4 Bft)
Durchschnitt _ 16,4 C 18,1 C 16,5 C 17,6 C 17,5 C 1,3 C 78 % 80 % 1012,4 hPa #0,0 l/m 1,8 km/h (1 Bft) SW - #4:30 h 12,5 C 17,5 C 2,7 km/h (1 Bft)
2021 www.wetterstation-wechselburg.de